| time (UTC) | temp F | wind direction | speed knots | gust knots | rain 1hr in | rain 24hr in | rain mn in | humidity % | barometer mb |
| 20260507072703 | 50 | 319 | 2.6 | 3.5 | 0.00 | 0.00 | 0.00 | 66 | 866.7 |
| 20260507071703 | 51 | 341 | 2.6 | 3.5 | 0.00 | 0.00 | 0.00 | 66 | 866.6 |
| 20260507070704 | 51 | 303 | 0.9 | 2.6 | 0.00 | 0.00 | 0.00 | 64 | 866.7 |
| 20260507070142 | 51 | 315 | 1.7 | 2.6 | 0.00 | 0.00 | 0.00 | 64 | 866.7 |
| 20260507064703 | 51 | 324 | 2.6 | 4.3 | 0.00 | 0.00 | 0.00 | 65 | 866.7 |
| 20260507063654 | 51 | 302 | 2.6 | 5.2 | 0.00 | 0.00 | 0.00 | 64 | 866.7 |
| 20260507063141 | 51 | 268 | 2.6 | 3.5 | 0.00 | 0.00 | 0.00 | 63 | 866.7 |
| 20260507062133 | 51 | 239 | 1.7 | 3.5 | 0.00 | 0.00 | 0.00 | 64 | 866.7 |
| 20260507061606 | 52 | 245 | 2.6 | 3.5 | 0.00 | 0.00 | 0.00 | 62 | 866.7 |
| 20260507055651 | 53 | 268 | 1.7 | 2.6 | 0.00 | 0.00 | 0.00 | 60 | 866.8 |
| 20260507054652 | 53 | 347 | 0.9 | 4.3 | 0.00 | 0.00 | 0.00 | 58 | 866.9 |
| 20260507053648 | 54 | 54 | 3.5 | 8.7 | 0.00 | 0.00 | 0.00 | 57 | 866.9 |
| 20260507053134 | 54 | 41 | 5.2 | 8.7 | 0.00 | 0.00 | 0.00 | 56 | 867.0 |
| 20260507051648 | 54 | 29 | 5.2 | 8.7 | 0.00 | 0.00 | 0.00 | 56 | 867.0 |
| 20260507051131 | 54 | 13 | 5.2 | 10.4 | 0.00 | 0.00 | 0.00 | 57 | 867.0 |
| 20260507045643 | 54 | 39 | 4.3 | 7.8 | 0.00 | 0.00 | 0.00 | 59 | 866.9 |
| 20260507044642 | 53 | 279 | 3.5 | 6.1 | 0.00 | 0.00 | 0.00 | 61 | 866.9 |
| 20260507043643 | 53 | 7 | 3.5 | 5.2 | 0.00 | 0.00 | 0.00 | 61 | 866.9 |
| 20260507042643 | 53 | 334 | 3.5 | 8.7 | 0.00 | 0.00 | 0.00 | 60 | 866.9 |
| 20260507041643 | 53 | 40 | 4.3 | 7.8 | 0.00 | 0.00 | 0.00 | 59 | 866.9 |
| 20260507040637 | 52 | 36 | 3.5 | 6.1 | 0.00 | 0.00 | 0.00 | 61 | 866.8 |
| 20260507035638 | 52 | 21 | 3.5 | 6.1 | 0.00 | 0.00 | 0.00 | 61 | 866.8 |
| 20260507034637 | 52 | 332 | 2.6 | 4.3 | 0.00 | 0.00 | 0.00 | 61 | 866.8 |
| 20260507033636 | 53 | 31 | 2.6 | 4.3 | 0.00 | 0.00 | 0.00 | 60 | 866.8 |
| 20260507032636 | 52 | 24 | 3.5 | 6.1 | 0.00 | 0.00 | 0.00 | 60 | 866.8 |
| 20260507031635 | 52 | 24 | 2.6 | 7.0 | 0.00 | 0.00 | 0.00 | 60 | 866.8 |
| 20260507030636 | 52 | 27 | 3.5 | 9.6 | 0.00 | 0.00 | 0.00 | 60 | 866.8 |
| 20260507025632 | 51 | 35 | 3.5 | 6.1 | 0.00 | 0.00 | 0.00 | 62 | 866.7 |
| 20260507024633 | 52 | 67 | 5.2 | 7.8 | 0.00 | 0.00 | 0.00 | 61 | 866.7 |
| 20260507023632 | 53 | 73 | 5.2 | 7.8 | 0.00 | 0.00 | 0.00 | 60 | 866.8 |
| 20260507022632 | 53 | 99 | 4.3 | 7.0 | 0.00 | 0.00 | 0.00 | 58 | 866.8 |
| 20260507021633 | 54 | 76 | 4.3 | 7.8 | 0.00 | 0.00 | 0.00 | 57 | 866.9 |
| 20260507020633 | 55 | 50 | 5.2 | 10.4 | 0.00 | 0.00 | 0.00 | 56 | 867.0 |
| 20260507015633 | 55 | 46 | 5.2 | 9.6 | 0.00 | 0.00 | 0.00 | 55 | 867.0 |
| 20260507014633 | 56 | 74 | 6.1 | 9.6 | 0.00 | 0.00 | 0.00 | 53 | 867.1 |
| 20260507014106 | 57 | 77 | 7.0 | 9.6 | 0.00 | 0.00 | 0.00 | 52 | 867.1 |
| 20260507012632 | 57 | 54 | 7.0 | 9.6 | 0.00 | 0.00 | 0.00 | 51 | 867.2 |
| 20260507012113 | 58 | 51 | 7.8 | 11.3 | 0.00 | 0.00 | 0.00 | 49 | 867.2 |
| 20260507010632 | 59 | 51 | 7.8 | 10.4 | 0.00 | 0.00 | 0.00 | 48 | 867.3 |
| 20260507005632 | 60 | 52 | 7.8 | 11.3 | 0.00 | 0.00 | 0.00 | 47 | 867.4 |
| 20260507005114 | 60 | 110 | 7.8 | 12.2 | 0.00 | 0.00 | 0.00 | 46 | 867.4 |
| 20260507003629 | 61 | 72 | 7.8 | 12.2 | 0.00 | 0.00 | 0.00 | 46 | 867.5 |
| 20260507002628 | 61 | 47 | 7.8 | 13.0 | 0.00 | 0.00 | 0.00 | 45 | 867.5 |
| 20260507002603 | 62 | 48 | 7.0 | 13.0 | 0.00 | 0.00 | 0.00 | 45 | 867.6 |
| 20260507001109 | 62 | 60 | 7.8 | 12.2 | 0.00 | 0.00 | 0.00 | 45 | 867.6 |
| 20260506235629 | 62 | 52 | 7.8 | 12.2 | 0.00 | 0.00 | 0.00 | 44 | 867.6 |
| 20260506235551 | 63 | 53 | 5.2 | 9.6 | 0.00 | 0.00 | 0.00 | 43 | 867.7 |
| 20260506233627 | 62 | 101 | 7.0 | 13.0 | 0.00 | 0.00 | 0.00 | 45 | 867.6 |
| 20260506232627 | 61 | 68 | 7.0 | 10.4 | 0.00 | 0.00 | 0.00 | 45 | 867.6 |
| 20260506232104 | 63 | 49 | 4.3 | 10.4 | 0.00 | 0.00 | 0.00 | 44 | 867.6 |
| 20260506231104 | 64 | 190 | 4.3 | 11.3 | 0.00 | 0.00 | 0.00 | 42 | 867.9 |
| 20260506230116 | 64 | 74 | 6.1 | 11.3 | 0.00 | 0.00 | 0.00 | 42 | 867.8 |
| 20260506224628 | 63 | 61 | 4.3 | 9.6 | 0.00 | 0.00 | 0.00 | 44 | 867.7 |
| 20260506223625 | 63 | 120 | 5.2 | 10.4 | 0.00 | 0.00 | 0.00 | 43 | 867.7 |
| 20260506222624 | 63 | 220 | 4.3 | 10.4 | 0.00 | 0.00 | 0.00 | 42 | 867.8 |
| 20260506221624 | 63 | 65 | 6.1 | 11.3 | 0.00 | 0.00 | 0.00 | 43 | 867.8 |
| 20260506220625 | 63 | 79 | 4.3 | 9.6 | 0.00 | 0.00 | 0.00 | 43 | 867.8 |
| 20260506215625 | 63 | 108 | 5.2 | 11.3 | 0.00 | 0.00 | 0.00 | 44 | 867.8 |
| 20260506214623 | 63 | 38 | 5.2 | 12.2 | 0.00 | 0.00 | 0.00 | 43 | 867.7 |
| 20260506213623 | 63 | 53 | 5.2 | 12.2 | 0.00 | 0.00 | 0.00 | 44 | 867.8 |
| 20260506212624 | 64 | 57 | 4.3 | 12.2 | 0.00 | 0.00 | 0.00 | 44 | 867.8 |
| 20260506211623 | 63 | 236 | 4.3 | 10.4 | 0.00 | 0.00 | 0.00 | 44 | 867.8 |
| 20260506210624 | 63 | 55 | 4.3 | 11.3 | 0.00 | 0.00 | 0.00 | 47 | 867.7 |
| 20260506205624 | 63 | 77 | 6.1 | 10.4 | 0.00 | 0.00 | 0.00 | 45 | 867.8 |
| 20260506204624 | 62 | 103 | 4.3 | 9.6 | 0.00 | 0.00 | 0.00 | 49 | 867.7 |
| 20260506203620 | 62 | 13 | 6.1 | 13.0 | 0.00 | 0.00 | 0.00 | 48 | 867.6 |
| 20260506202620 | 61 | 73 | 5.2 | 15.6 | 0.00 | 0.01 | 0.00 | 50 | 867.7 |
| 20260506201620 | 61 | 60 | 6.1 | 14.8 | 0.00 | 0.01 | 0.00 | 49 | 867.6 |
| 20260506200620 | 61 | 84 | 6.1 | 12.2 | 0.00 | 0.01 | 0.00 | 49 | 867.7 |
| 20260506195621 | 60 | 61 | 6.1 | 11.3 | 0.00 | 0.01 | 0.00 | 50 | 867.7 |
| 20260506194621 | 59 | 79 | 6.1 | 13.0 | 0.00 | 0.01 | 0.00 | 52 | 867.4 |
| 20260506194059 | 59 | 77 | 7.0 | 13.0 | 0.00 | 0.01 | 0.00 | 53 | 867.5 |
| 20260506192620 | 60 | 154 | 4.3 | 10.4 | 0.00 | 0.01 | 0.00 | 50 | 867.5 |
| 20260506191619 | 58 | 158 | 6.1 | 11.3 | 0.00 | 0.02 | 0.00 | 53 | 867.3 |
| 20260506190619 | 58 | 71 | 6.1 | 13.0 | 0.00 | 0.02 | 0.00 | 54 | 867.4 |
| 20260506185620 | 58 | 156 | 7.8 | 13.9 | 0.00 | 0.02 | 0.00 | 53 | 867.4 |
| 20260506184620 | 58 | 73 | 7.0 | 11.3 | 0.00 | 0.02 | 0.00 | 54 | 867.4 |
| 20260506184107 | 58 | 82 | 5.2 | 12.2 | 0.00 | 0.02 | 0.00 | 54 | 867.3 |
| 20260506182615 | 58 | 83 | 4.3 | 12.2 | 0.00 | 0.02 | 0.00 | 55 | 867.3 |
| 20260506181615 | 58 | 102 | 3.5 | 8.7 | 0.00 | 0.02 | 0.00 | 54 | 867.3 |
| 20260506180615 | 57 | 77 | 4.3 | 10.4 | 0.00 | 0.02 | 0.00 | 56 | 867.3 |
| 20260506175615 | 56 | 43 | 6.1 | 12.2 | 0.00 | 0.02 | 0.00 | 56 | 867.2 |
| 20260506174615 | 57 | 92 | 5.2 | 10.4 | 0.00 | 0.02 | 0.00 | 55 | 867.2 |
| 20260506173615 | 57 | 224 | 5.2 | 12.2 | 0.00 | 0.02 | 0.00 | 55 | 867.3 |
| 20260506172615 | 57 | 162 | 6.1 | 13.0 | 0.00 | 0.02 | 0.00 | 55 | 867.2 |
| 20260506171616 | 58 | 132 | 4.3 | 10.4 | 0.00 | 0.02 | 0.00 | 53 | 867.4 |
| 20260506170616 | 57 | 220 | 5.2 | 11.3 | 0.00 | 0.02 | 0.00 | 55 | 867.3 |
| 20260506165616 | 57 | 42 | 6.1 | 12.2 | 0.00 | 0.02 | 0.00 | 55 | 867.3 |
| 20260506164616 | 58 | 271 | 3.5 | 10.4 | 0.00 | 0.02 | 0.00 | 52 | 867.4 |
| 20260506163616 | 57 | 321 | 4.3 | 11.3 | 0.00 | 0.03 | 0.00 | 53 | 867.3 |
| 20260506162612 | 57 | 248 | 4.3 | 11.3 | 0.00 | 0.04 | 0.00 | 53 | 867.3 |
| 20260506161613 | 56 | 99 | 4.3 | 14.8 | 0.00 | 0.04 | 0.00 | 53 | 867.3 |
| 20260506160613 | 55 | 60 | 5.2 | 13.9 | 0.00 | 0.04 | 0.00 | 56 | 867.1 |
| 20260506155613 | 55 | 80 | 7.8 | 13.0 | 0.00 | 0.04 | 0.00 | 57 | 867.1 |
| 20260506154613 | 54 | 128 | 6.1 | 12.2 | 0.00 | 0.05 | 0.00 | 58 | 867.1 |
| 20260506153611 | 54 | 74 | 7.0 | 13.9 | 0.00 | 0.05 | 0.00 | 57 | 867.0 |
| 20260506152607 | 53 | 73 | 6.1 | 13.0 | 0.00 | 0.05 | 0.00 | 61 | 866.9 |
| 20260506151607 | 53 | 112 | 7.8 | 14.8 | 0.00 | 0.06 | 0.00 | 58 | 867.0 |
| 20260506150608 | 53 | 93 | 7.8 | 15.6 | 0.00 | 0.06 | 0.00 | 59 | 867.0 |
| 20260506145608 | 52 | 79 | 8.7 | 16.5 | 0.00 | 0.06 | 0.00 | 62 | 866.8 |
| 20260506144607 | 51 | 195 | 9.6 | 17.4 | 0.00 | 0.06 | 0.00 | 65 | 866.9 |
| 20260506143609 | 51 | 103 | 7.8 | 16.5 | 0.00 | 0.06 | 0.00 | 66 | 866.8 |
| 20260506142607 | 50 | 61 | 10.4 | 13.9 | 0.00 | 0.07 | 0.00 | 67 | 866.7 |
| 20260506141610 | 50 | 54 | 10.4 | 14.8 | 0.00 | 0.07 | 0.00 | 69 | 866.6 |
| 20260506140607 | 50 | 93 | 8.7 | 14.8 | 0.00 | 0.07 | 0.00 | 69 | 866.7 |
| 20260506135608 | 49 | 100 | 7.0 | 15.6 | 0.00 | 0.08 | 0.00 | 71 | 866.6 |
| 20260506134607 | 48 | 81 | 7.8 | 16.5 | 0.00 | 0.08 | 0.00 | 73 | 866.5 |
| 20260506133608 | 48 | 86 | 7.8 | 13.0 | 0.00 | 0.09 | 0.00 | 75 | 866.5 |
| 20260506132603 | 47 | 88 | 8.7 | 13.0 | 0.00 | 0.09 | 0.00 | 75 | 866.5 |
| 20260506132038 | 47 | 89 | 10.4 | 17.4 | 0.00 | 0.09 | 0.00 | 76 | 866.3 |
| 20260506130603 | 47 | 86 | 9.6 | 13.0 | 0.00 | 0.09 | 0.00 | 77 | 866.3 |
| 20260506130049 | 47 | 87 | 9.6 | 14.8 | 0.00 | 0.10 | 0.00 | 78 | 866.3 |
| 20260506125049 | 47 | 63 | 9.6 | 16.5 | 0.00 | 0.10 | 0.00 | 78 | 866.3 |
| 20260506123604 | 47 | 69 | 8.7 | 16.5 | 0.00 | 0.10 | 0.00 | 79 | 866.3 |
| 20260506122602 | 47 | 89 | 7.8 | 12.2 | 0.00 | 0.10 | 0.00 | 80 | 866.3 |
| 20260506121602 | 47 | 76 | 7.8 | 14.8 | 0.00 | 0.10 | 0.00 | 80 | 866.3 |
| 20260506120602 | 47 | 84 | 9.6 | 13.9 | 0.00 | 0.10 | 0.00 | 80 | 866.3 |
| 20260506120048 | 47 | 90 | 8.7 | 13.0 | 0.00 | 0.10 | 0.00 | 79 | 866.3 |
| 20260506114602 | 47 | 77 | 8.7 | 13.0 | 0.00 | 0.10 | 0.00 | 79 | 866.3 |
| 20260506113603 | 47 | 63 | 8.7 | 15.6 | 0.00 | 0.10 | 0.00 | 79 | 866.3 |
| 20260506113531 | 47 | 85 | 9.6 | 17.4 | 0.00 | 0.10 | 0.00 | 79 | 866.3 |
| 20260506111559 | 48 | 50 | 10.4 | 17.4 | 0.00 | 0.10 | 0.00 | 80 | 866.3 |
| 20260506110559 | 48 | 67 | 8.7 | 13.9 | 0.00 | 0.10 | 0.00 | 80 | 866.3 |
| 20260506105559 | 49 | 73 | 8.7 | 11.3 | 0.00 | 0.10 | 0.00 | 79 | 866.5 |
| 20260506104559 | 49 | 83 | 8.7 | 14.8 | 0.00 | 0.10 | 0.00 | 77 | 866.5 |
| 20260506103600 | 49 | 90 | 8.7 | 14.8 | 0.00 | 0.10 | 0.00 | 76 | 866.5 |
| 20260506102600 | 49 | 82 | 7.8 | 13.0 | 0.00 | 0.10 | 0.00 | 76 | 866.5 |
| 20260506102522 | 49 | 80 | 7.0 | 14.8 | 0.00 | 0.10 | 0.00 | 76 | 866.5 |
| 20260506100558 | 49 | 91 | 7.8 | 13.0 | 0.00 | 0.10 | 0.00 | 76 | 866.5 |
| 20260506095558 | 49 | 87 | 7.8 | 13.9 | 0.00 | 0.10 | 0.00 | 76 | 866.5 |
| 20260506094559 | 49 | 105 | 7.8 | 13.9 | 0.00 | 0.10 | 0.00 | 75 | 866.5 |
| 20260506093559 | 49 | 74 | 7.8 | 13.0 | 0.00 | 0.10 | 0.00 | 75 | 866.5 |
| 20260506092558 | 49 | 73 | 8.7 | 13.0 | 0.00 | 0.10 | 0.00 | 75 | 866.5 |
| 20260506091559 | 49 | 67 | 7.8 | 13.0 | 0.00 | 0.10 | 0.00 | 75 | 866.5 |
| 20260506090555 | 49 | 83 | 8.7 | 15.6 | 0.00 | 0.10 | 0.00 | 76 | 866.5 |
| 20260506085556 | 49 | 58 | 8.7 | 13.0 | 0.00 | 0.10 | 0.00 | 75 | 866.5 |
| 20260506085033 | 49 | 42 | 7.8 | 11.3 | 0.00 | 0.10 | 0.00 | 76 | 866.5 |
| 20260506083556 | 49 | 77 | 7.0 | 13.0 | 0.00 | 0.10 | 0.00 | 76 | 866.5 |
| 20260506082556 | 49 | 74 | 7.0 | 11.3 | 0.00 | 0.10 | 0.00 | 76 | 866.5 |
| 20260506081556 | 48 | 73 | 7.0 | 11.3 | 0.00 | 0.10 | 0.00 | 75 | 866.5 |
| 20260506080553 | 48 | 60 | 6.1 | 13.0 | 0.00 | 0.10 | 0.00 | 76 | 866.5 |